| time (UTC) | temp F | wind direction | speed MPH | gust MPH | rain 1hr in | rain 24hr in | rain mn in | humidity % | barometer mb |
| 20260507131603 | 60 | 266 | 0.0 | 0.0 | 0.00 | 0.00 | 0.00 | 47 | 1011.7 |
| 20260507130024 | 61 | 266 | 0.0 | 0.0 | 0.00 | 0.00 | 0.00 | 45 | 1011.6 |
| 20260507124525 | 60 | 266 | 0.0 | 0.0 | 0.00 | 0.00 | 0.00 | 45 | 1011.6 |
| 20260507123017 | 60 | 266 | 0.0 | 0.0 | 0.00 | 0.00 | 0.00 | 45 | 1011.4 |
| 20260507121514 | 61 | 266 | 0.0 | 0.0 | 0.00 | 0.00 | 0.00 | 45 | 1011.3 |
| 20260507120117 | 61 | 266 | 0.0 | 0.0 | 0.00 | 0.00 | 0.00 | 45 | 1011.3 |
| 20260507114511 | 61 | 266 | 0.0 | 0.0 | 0.00 | 0.00 | 0.00 | 47 | 1011.3 |
| 20260507113034 | 61 | 266 | 0.0 | 0.0 | 0.00 | 0.00 | 0.00 | 47 | 1011.4 |
| 20260507111510 | 61 | 266 | 0.0 | 0.0 | 0.00 | 0.00 | 0.00 | 47 | 1011.5 |
| 20260507110028 | 61 | 266 | 0.0 | 0.0 | 0.00 | 0.00 | 0.00 | 46 | 1011.5 |
| 20260507104522 | 61 | 266 | 0.0 | 0.0 | 0.00 | 0.00 | 0.00 | 46 | 1011.7 |
| 20260507103018 | 62 | 266 | 0.0 | 0.0 | 0.00 | 0.00 | 0.00 | 48 | 1011.8 |
| 20260507101519 | 62 | 266 | 0.0 | 0.0 | 0.00 | 0.00 | 0.00 | 45 | 1012.0 |
| 20260507100020 | 62 | 266 | 0.0 | 0.0 | 0.00 | 0.00 | 0.00 | 45 | 1012.0 |
| 20260507094512 | 63 | 266 | 0.0 | 0.0 | 0.00 | 0.00 | 0.00 | 43 | 1012.0 |
| 20260507093032 | 62 | 266 | 0.0 | 0.0 | 0.00 | 0.00 | 0.00 | 44 | 1012.1 |
| 20260507091512 | 62 | 266 | 0.0 | 0.0 | 0.00 | 0.00 | 0.00 | 44 | 1012.1 |
| 20260507090030 | 64 | 266 | 0.0 | 0.0 | 0.00 | 0.00 | 0.00 | 43 | 1012.0 |
| 20260507084522 | 65 | 266 | 0.0 | 0.0 | 0.00 | 0.00 | 0.00 | 42 | 1012.2 |
| 20260507083034 | 66 | 266 | 0.0 | 0.0 | 0.00 | 0.00 | 0.00 | 41 | 1012.4 |
| 20260507081515 | 67 | 266 | 0.0 | 0.0 | 0.00 | 0.00 | 0.00 | 38 | 1012.3 |
| 20260507080010 | 69 | 266 | 0.0 | 0.0 | 0.00 | 0.00 | 0.00 | 33 | 1012.3 |
| 20260507074530 | 69 | 266 | 0.0 | 0.0 | 0.00 | 0.00 | 0.00 | 31 | 1012.4 |
| 20260507073024 | 69 | 248 | 0.0 | 0.0 | 0.00 | 0.00 | 0.00 | 31 | 1012.4 |
| 20260507071533 | 69 | 248 | 0.0 | 0.0 | 0.00 | 0.00 | 0.00 | 31 | 1012.3 |
| 20260507070021 | 68 | 248 | 0.0 | 0.0 | 0.00 | 0.00 | 0.00 | 34 | 1012.3 |
| 20260507064522 | 69 | 248 | 0.0 | 0.0 | 0.00 | 0.00 | 0.00 | 33 | 1012.3 |
| 20260507063021 | 69 | 248 | 0.0 | 0.0 | 0.00 | 0.00 | 0.00 | 33 | 1012.3 |
| 20260507061514 | 69 | 248 | 0.0 | 0.0 | 0.00 | 0.00 | 0.00 | 33 | 1012.3 |
| 20260507060019 | 71 | 248 | 0.0 | 0.0 | 0.00 | 0.00 | 0.00 | 31 | 1012.3 |
| 20260507054512 | 73 | 248 | 0.0 | 0.0 | 0.00 | 0.00 | 0.00 | 29 | 1012.3 |
| 20260507053028 | 72 | 233 | 0.0 | 0.0 | 0.00 | 0.00 | 0.00 | 29 | 1012.2 |
| 20260507051509 | 73 | 233 | 0.0 | 0.0 | 0.00 | 0.00 | 0.00 | 29 | 1012.2 |
| 20260507050028 | 73 | 233 | 0.0 | 0.0 | 0.00 | 0.00 | 0.00 | 29 | 1012.1 |
| 20260507044526 | 75 | 233 | 0.0 | 0.0 | 0.00 | 0.00 | 0.00 | 27 | 1012.1 |
| 20260507043033 | 75 | 220 | 0.0 | 0.0 | 0.00 | 0.00 | 0.00 | 27 | 1012.0 |
| 20260507041525 | 73 | 228 | 0.0 | 0.0 | 0.00 | 0.00 | 0.00 | 29 | 1011.8 |
| 20260507040019 | 74 | 228 | 0.0 | 0.0 | 0.00 | 0.00 | 0.00 | 28 | 1011.5 |
| 20260507034518 | 76 | 228 | 0.0 | 0.0 | 0.00 | 0.00 | 0.00 | 26 | 1011.4 |
| 20260507033021 | 77 | 228 | 0.0 | 0.0 | 0.00 | 0.00 | 0.00 | 25 | 1011.3 |
| 20260507031515 | 78 | 214 | 0.0 | 1.0 | 0.00 | 0.00 | 0.00 | 24 | 1011.0 |
| 20260507030013 | 79 | 203 | 0.0 | 2.0 | 0.00 | 0.00 | 0.00 | 24 | 1010.8 |
| 20260507024515 | 79 | 214 | 0.0 | 3.0 | 0.00 | 0.00 | 0.00 | 24 | 1010.6 |
| 20260507023029 | 80 | 252 | 0.0 | 2.0 | 0.00 | 0.00 | 0.00 | 24 | 1010.4 |
| 20260507021524 | 80 | 238 | 0.0 | 2.0 | 0.00 | 0.00 | 0.00 | 23 | 1010.4 |
| 20260507020019 | 82 | 289 | 0.0 | 4.0 | 0.00 | 0.00 | 0.00 | 22 | 1010.3 |
| 20260507014520 | 84 | 229 | 0.0 | 4.0 | 0.00 | 0.00 | 0.00 | 22 | 1010.3 |
| 20260507013019 | 84 | 285 | 1.0 | 4.0 | 0.00 | 0.00 | 0.00 | 22 | 1010.1 |
| 20260507011518 | 85 | 232 | 1.0 | 4.0 | 0.00 | 0.00 | 0.00 | 21 | 1010.1 |
| 20260507010013 | 84 | 323 | 0.0 | 5.0 | 0.00 | 0.00 | 0.00 | 21 | 1010.2 |
| 20260507004517 | 85 | 280 | 0.0 | 5.0 | 0.00 | 0.00 | 0.00 | 21 | 1010.2 |
| 20260507003027 | 85 | 253 | 2.0 | 8.0 | 0.00 | 0.00 | 0.00 | 21 | 1010.2 |
| 20260507001529 | 85 | 205 | 0.0 | 9.0 | 0.00 | 0.00 | 0.00 | 21 | 1010.1 |
| 20260507000023 | 86 | 217 | 0.0 | 6.0 | 0.00 | 0.00 | 0.00 | 20 | 1010.2 |
| 20260506234530 | 84 | 195 | 1.0 | 7.0 | 0.00 | 0.00 | 0.00 | 21 | 1010.3 |
| 20260506233016 | 85 | 289 | 1.0 | 4.0 | 0.00 | 0.00 | 0.00 | 21 | 1010.3 |
| 20260506231524 | 85 | 303 | 0.0 | 4.0 | 0.00 | 0.00 | 0.00 | 21 | 1010.4 |
| 20260506230018 | 85 | 331 | 0.0 | 4.0 | 0.00 | 0.00 | 0.00 | 22 | 1010.7 |
| 20260506224523 | 85 | 313 | 0.0 | 5.0 | 0.00 | 0.00 | 0.00 | 21 | 1010.8 |
| 20260506223011 | 85 | 223 | 2.0 | 7.0 | 0.00 | 0.00 | 0.00 | 21 | 1011.0 |
| 20260506221527 | 84 | 118 | 0.0 | 6.0 | 0.00 | 0.00 | 0.00 | 21 | 1011.2 |
| 20260506220022 | 85 | 243 | 1.0 | 6.0 | 0.00 | 0.00 | 0.00 | 21 | 1011.3 |
| 20260506214522 | 84 | 311 | 0.0 | 9.0 | 0.00 | 0.00 | 0.00 | 21 | 1011.6 |
| 20260506213021 | 84 | 251 | 3.0 | 8.0 | 0.00 | 0.00 | 0.00 | 21 | 1012.0 |
| 20260506211516 | 84 | 200 | 1.0 | 4.0 | 0.00 | 0.00 | 0.00 | 22 | 1012.2 |
| 20260506210012 | 82 | 151 | 1.0 | 6.0 | 0.00 | 0.00 | 0.00 | 22 | 1012.5 |
| 20260506204534 | 84 | 297 | 1.0 | 5.0 | 0.00 | 0.00 | 0.00 | 22 | 1012.7 |
| 20260506203030 | 82 | 1 | 4.0 | 9.0 | 0.00 | 0.00 | 0.00 | 22 | 1013.0 |
| 20260506201522 | 82 | 338 | 3.0 | 7.0 | 0.00 | 0.00 | 0.00 | 23 | 1013.1 |
| 20260506200023 | 82 | 236 | 2.0 | 7.0 | 0.00 | 0.00 | 0.00 | 23 | 1013.2 |
| 20260506194513 | 81 | 238 | 1.0 | 6.0 | 0.00 | 0.00 | 0.00 | 24 | 1013.3 |
| 20260506193025 | 81 | 312 | 1.0 | 9.0 | 0.00 | 0.00 | 0.00 | 24 | 1013.6 |
| 20260506191520 | 81 | 239 | 3.0 | 6.0 | 0.00 | 0.00 | 0.00 | 24 | 1013.7 |
| 20260506190031 | 81 | 135 | 0.0 | 2.0 | 0.00 | 0.00 | 0.00 | 24 | 1013.9 |
| 20260506184514 | 80 | 219 | 2.0 | 6.0 | 0.00 | 0.00 | 0.00 | 24 | 1014.0 |
| 20260506183028 | 80 | 252 | 0.0 | 4.0 | 0.00 | 0.00 | 0.00 | 26 | 1014.3 |
| 20260506181533 | 80 | 284 | 0.0 | 6.0 | 0.00 | 0.00 | 0.00 | 27 | 1014.5 |
| 20260506180025 | 78 | 212 | 1.0 | 6.0 | 0.00 | 0.00 | 0.00 | 29 | 1014.6 |
| 20260506174520 | 77 | 15 | 2.0 | 5.0 | 0.00 | 0.00 | 0.00 | 29 | 1014.7 |
| 20260506173019 | 77 | 108 | 0.0 | 4.0 | 0.00 | 0.00 | 0.00 | 30 | 1014.7 |
| 20260506171519 | 77 | 298 | 1.0 | 4.0 | 0.00 | 0.00 | 0.00 | 29 | 1014.7 |
| 20260506170014 | 74 | 311 | 0.0 | 5.0 | 0.00 | 0.00 | 0.00 | 32 | 1014.7 |
| 20260506164514 | 75 | 252 | 1.0 | 7.0 | 0.00 | 0.00 | 0.00 | 31 | 1014.7 |
| 20260506163017 | 74 | 209 | 0.0 | 5.0 | 0.00 | 0.00 | 0.00 | 32 | 1014.6 |
| 20260506161528 | 73 | 217 | 0.0 | 3.0 | 0.00 | 0.00 | 0.00 | 33 | 1014.5 |
| 20260506160022 | 73 | 244 | 0.0 | 3.0 | 0.00 | 0.00 | 0.00 | 33 | 1014.4 |
| 20260506154531 | 71 | 325 | 0.0 | 5.0 | 0.00 | 0.00 | 0.00 | 35 | 1014.5 |
| 20260506153020 | 72 | 198 | 0.0 | 2.0 | 0.00 | 0.00 | 0.00 | 35 | 1014.5 |
| 20260506151514 | 70 | 180 | 0.0 | 3.0 | 0.00 | 0.00 | 0.00 | 36 | 1014.6 |
| 20260506150013 | 69 | 349 | 0.0 | 3.0 | 0.00 | 0.00 | 0.00 | 38 | 1014.6 |
| 20260506144509 | 69 | 319 | 0.0 | 1.0 | 0.00 | 0.00 | 0.00 | 38 | 1014.6 |
| 20260506143026 | 68 | 329 | 0.0 | 1.0 | 0.00 | 0.00 | 0.00 | 39 | 1014.4 |
| 20260506141521 | 69 | 200 | 0.0 | 0.0 | 0.00 | 0.00 | 0.00 | 40 | 1014.2 |
| 20260506140026 | 66 | 200 | 0.0 | 0.0 | 0.00 | 0.00 | 0.00 | 46 | 1014.0 |
| 20260506134517 | 62 | 200 | 0.0 | 0.0 | 0.00 | 0.00 | 0.00 | 53 | 1013.8 |
| 20260506133012 | 58 | 207 | 0.0 | 0.0 | 0.00 | 0.00 | 0.00 | 59 | 1013.6 |